Thunderstorms From: 25-05-2018 05:05 Until: 26-05-2018 05:00 warning for: Thunderstorms Level: Yellow info button

Although rather usual in this region, locally or potentially dangerous phenomena are expected. (such as local winds, summer thunderstorms, rising streams or high waves) Be aware and pay attention to the latest weather updates, especially if you carry out activities exposed to weather or close to a stream or shoreline. 


Meteo18 Weather Cam more information Meteo18 Weather Cam


warning for Thunderstorms more information blitzortung!


Rain radar more information rain snow radar


Visit our other weather sites:

Template documentation
and downloads

And another site



Weather Underground History page Text

Daily Summary for February 24, 2017 Units:  English    Metric   Both
« Previous Day
Next Day »
Daily Weekly Monthly Yearly Custom
  High: Low: Average:
Temperature: TemperatureC °F 2.5 °F 5.7 °F
Dew Point: DewpointC °F -0.1 °F 2.1 °F
Humidity: Humidity % 62 % 78 %
Wind Speed: WindSpeedKMH mph 0.0 mph 5.4 mph
Wind Gust: WindSpeedGustKMH mph - -
Wind:- - WNW
Pressure: PressurehPa in 1012.8 in -
Precipitation: 0.0 in    
Historical Graphs
 
 
Tabular Data for February 24, 2017
Time Temperature Dew Point Pressure Wind Wind Speed Wind Gust Humidity Rainfall Rate (Hourly)
TemperatureC °F DewpointC °F PressurehPa in Calm     Humidity % HourlyPrecipMM in
00:02 7.4 °F 4.2 °F 1012.8 in NW 8.0 mph 17.7 mph 80 % 0.0 in
00:07 7.3 °F 4.3 °F 1012.8 in West 12.9 mph 12.9 mph 81 % 0.0 in
00:17 7.3 °F 4.1 °F 1013.1 in WNW 9.7 mph 17.7 mph 80 % 0.0 in
00:22 7.3 °F 4.1 °F 1013.1 in West 6.4 mph 22.5 mph 80 % 0.0 in
00:27 7.1 °F 4.1 °F 1013.1 in WSW 3.2 mph 22.5 mph 81 % 0.0 in
00:32 7.1 °F 4.1 °F 1013.1 in WNW 16.1 mph 20.9 mph 81 % 0.0 in
00:37 6.9 °F 3.9 °F 1013.1 in West 4.8 mph 20.9 mph 81 % 0.0 in
00:42 6.8 °F 3.8 °F 1013.4 in Calm   20.9 mph 81 % 0.0 in
00:47 6.7 °F 3.8 °F 1013.4 in WNW 1.6 mph 20.9 mph 82 % 0.0 in
00:52 6.6 °F 3.7 °F 1013.4 in West 8.0 mph 20.9 mph 82 % 0.0 in
00:57 6.6 °F 3.6 °F 1013.4 in WNW 4.8 mph 14.5 mph 81 % 0.0 in
01:02 6.6 °F 3.4 °F 1013.8 in NW 4.8 mph 14.5 mph 80 % 0.0 in
01:07 6.6 °F 3.4 °F 1013.8 in WNW 11.3 mph 20.9 mph 80 % 0.0 in
01:17 6.4 °F 3.4 °F 1013.8 in WNW 9.7 mph 19.3 mph 81 % 0.0 in
01:22 6.4 °F 3.4 °F 1014.1 in WSW 6.4 mph 19.3 mph 81 % 0.0 in
01:32 6.3 °F 3.3 °F 1013.8 in NW 4.8 mph 17.7 mph 81 % 0.0 in
01:37 6.3 °F 3.3 °F 1013.8 in West 12.9 mph 22.5 mph 81 % 0.0 in
01:42 6.3 °F 3.3 °F 1013.8 in West 14.5 mph 22.5 mph 81 % 0.0 in
01:47 6.2 °F 3.2 °F 1014.1 in WNW 9.7 mph 22.5 mph 81 % 0.0 in
01:52 6.2 °F 3.2 °F 1014.1 in WNW 4.8 mph 22.5 mph 81 % 0.0 in
02:02 6.2 °F 3.2 °F 1014.1 in West 8.0 mph 17.7 mph 81 % 0.0 in
02:07 6.1 °F 3.1 °F 1014.1 in North 9.7 mph 17.7 mph 81 % 0.0 in
02:12 6.1 °F 3.1 °F 1014.1 in WNW 1.6 mph 17.7 mph 81 % 0.0 in
02:17 6.0 °F 3.0 °F 1014.1 in WNW 9.7 mph 17.7 mph 81 % 0.0 in
02:22 6.0 °F 3.0 °F 1014.4 in WNW 4.8 mph 17.7 mph 81 % 0.0 in
02:32 5.9 °F 2.9 °F 1014.4 in West 9.7 mph 14.5 mph 81 % 0.0 in
02:42 5.9 °F 2.9 °F 1014.4 in NW 11.3 mph 17.7 mph 81 % 0.0 in
02:47 5.8 °F 3.0 °F 1014.4 in West 9.7 mph 20.9 mph 82 % 0.0 in
02:52 5.8 °F 3.0 °F 1014.4 in WSW 1.6 mph 20.9 mph 82 % 0.0 in
03:02 5.7 °F 3.0 °F 1014.4 in WNW 6.4 mph 20.9 mph 83 % 0.0 in
03:07 5.6 °F 2.9 °F 1014.4 in NW 4.8 mph 20.9 mph 83 % 0.0 in
03:12 5.5 °F 3.0 °F 1014.4 in NW 4.8 mph 20.9 mph 84 % 0.0 in
03:17 5.4 °F 2.9 °F 1014.8 in WNW 3.2 mph 17.7 mph 84 % 0.0 in
03:22 5.4 °F 2.9 °F 1014.4 in NW 3.2 mph 17.7 mph 84 % 0.0 in
03:27 5.4 °F 2.9 °F 1014.8 in WNW 4.8 mph 16.1 mph 84 % 0.0 in
03:32 5.4 °F 3.1 °F 1014.8 in Calm   16.1 mph 85 % 0.0 in
03:42 5.3 °F 3.0 °F 1014.8 in West 6.4 mph 16.1 mph 85 % 0.0 in
03:47 5.2 °F 2.9 °F 1014.8 in WNW 6.4 mph 11.3 mph 85 % 0.0 in
03:52 5.2 °F 3.1 °F 1014.8 in NW 3.2 mph 11.3 mph 86 % 0.0 in
04:02 5.1 °F 3.0 °F 1014.8 in West 3.2 mph 11.3 mph 86 % 0.0 in
04:07 5.1 °F 3.0 °F 1014.8 in NW 1.6 mph 9.7 mph 86 % 0.0 in
04:12 5.1 °F 3.0 °F 1014.8 in Calm   9.7 mph 86 % 0.0 in
04:17 5.1 °F 3.0 °F 1014.8 in WNW 3.2 mph 9.7 mph 86 % 0.0 in
04:22 5.1 °F 3.0 °F 1014.8 in NNW 1.6 mph 9.7 mph 86 % 0.0 in
04:27 5.1 °F 3.0 °F 1014.8 in NW 6.4 mph 12.9 mph 86 % 0.0 in
04:32 5.1 °F 3.0 °F 1014.8 in WNW 3.2 mph 12.9 mph 86 % 0.0 in
04:42 5.1 °F 3.1 °F 1014.8 in West 4.8 mph 11.3 mph 87 % 0.0 in
04:47 5.1 °F 3.1 °F 1014.8 in West 11.3 mph 12.9 mph 87 % 0.0 in
04:52 5.0 °F 3.0 °F 1014.8 in WNW 6.4 mph 12.9 mph 87 % 0.0 in
04:57 4.9 °F 2.9 °F 1015.1 in WNW 6.4 mph 12.9 mph 87 % 0.0 in
05:02 4.9 °F 2.9 °F 1015.1 in WNW 1.6 mph 12.9 mph 87 % 0.0 in
05:07 4.8 °F 2.8 °F 1015.1 in West 3.2 mph 12.9 mph 87 % 0.0 in
05:12 4.8 °F 2.8 °F 1015.5 in West 3.2 mph 12.9 mph 87 % 0.0 in
05:17 4.7 °F 2.7 °F 1015.5 in WNW 3.2 mph 12.9 mph 87 % 0.0 in
05:22 4.7 °F 2.7 °F 1015.5 in WNW 3.2 mph 12.9 mph 87 % 0.0 in
05:32 4.5 °F 2.7 °F 1015.5 in WNW 3.2 mph 8.0 mph 88 % 0.0 in
05:37 4.4 °F 2.6 °F 1015.5 in West 1.6 mph 8.0 mph 88 % 0.0 in
05:42 4.3 °F 2.5 °F 1015.5 in West 6.4 mph 8.0 mph 88 % 0.0 in
05:47 4.3 °F 2.5 °F 1015.8 in NW 1.6 mph 11.3 mph 88 % 0.0 in
05:52 4.2 °F 2.5 °F 1015.8 in WNW 8.0 mph 11.3 mph 89 % 0.0 in
05:57 4.2 °F 2.5 °F 1015.8 in WNW 6.4 mph 11.3 mph 89 % 0.0 in
06:02 4.2 °F 2.5 °F 1015.8 in West 1.6 mph 11.3 mph 89 % 0.0 in
06:12 4.0 °F 2.4 °F 1015.8 in West 3.2 mph 14.5 mph 89 % 0.0 in
06:17 3.9 °F 2.3 °F 1015.8 in West 1.6 mph 14.5 mph 89 % 0.0 in
06:22 3.9 °F 2.3 °F 1015.8 in WNW 6.4 mph 14.5 mph 89 % 0.0 in
06:27 3.9 °F 2.3 °F 1015.8 in NW 3.2 mph 8.0 mph 89 % 0.0 in
06:32 3.9 °F 2.3 °F 1015.8 in WNW 3.2 mph 8.0 mph 89 % 0.0 in
06:37 3.8 °F 2.2 °F 1015.8 in West 1.6 mph 8.0 mph 89 % 0.0 in
06:47 3.6 °F 2.1 °F 1015.8 in WNW 4.8 mph 11.3 mph 90 % 0.0 in
06:52 3.6 °F 2.1 °F 1015.8 in WNW 1.6 mph 11.3 mph 90 % 0.0 in
06:57 3.6 °F 2.1 °F 1015.8 in WNW 3.2 mph 11.3 mph 90 % 0.0 in
07:02 3.5 °F 2.0 °F 1016.1 in WNW 4.8 mph 11.3 mph 90 % 0.0 in
07:12 3.4 °F 2.1 °F 1016.1 in NW 3.2 mph 11.3 mph 91 % 0.0 in
07:17 3.4 °F 2.1 °F 1016.1 in WNW 1.6 mph 8.0 mph 91 % 0.0 in
07:22 3.4 °F 2.1 °F 1016.1 in WNW 1.6 mph 8.0 mph 91 % 0.0 in
07:32 3.3 °F 2.0 °F 1016.1 in WNW 6.4 mph 9.7 mph 91 % 0.0 in
07:37 3.3 °F 2.0 °F 1016.1 in NW 3.2 mph 9.7 mph 91 % 0.0 in
07:42 3.3 °F 2.1 °F 1016.5 in NW 6.4 mph 9.7 mph 92 % 0.0 in
07:47 3.2 °F 2.0 °F 1016.5 in WNW 6.4 mph 9.7 mph 92 % 0.0 in
07:52 3.2 °F 2.0 °F 1016.5 in NW 1.6 mph 9.7 mph 92 % 0.0 in
08:02 3.2 °F 2.0 °F 1016.5 in NW 3.2 mph 9.7 mph 92 % 0.0 in
08:12 3.3 °F 2.1 °F 1016.8 in WNW 4.8 mph 9.7 mph 92 % 0.0 in
08:17 3.3 °F 2.0 °F 1016.8 in NNW 3.2 mph 11.3 mph 91 % 0.0 in
08:22 3.4 °F 2.1 °F 1016.8 in NW 1.6 mph 11.3 mph 91 % 0.0 in
08:32 3.7 °F 2.4 °F 1017.2 in Calm   11.3 mph 91 % 0.0 in
08:42 3.9 °F 2.4 °F 1017.2 in West 3.2 mph 12.9 mph 90 % 0.0 in
08:52 4.2 °F 2.5 °F 1017.2 in NNW 3.2 mph 14.5 mph 89 % 0.0 in
08:57 4.3 °F 2.6 °F 1017.2 in NW 3.2 mph 16.1 mph 89 % 0.0 in
09:02 4.4 °F 2.7 °F 1017.2 in WNW 9.7 mph 16.1 mph 89 % 0.0 in
09:12 4.6 °F 2.8 °F 1017.2 in WNW 11.3 mph 14.5 mph 88 % 0.0 in
09:17 4.8 °F 3.0 °F 1017.5 in West 3.2 mph 19.3 mph 88 % 0.0 in
09:22 4.9 °F 2.9 °F 1017.5 in NW 6.4 mph 19.3 mph 87 % 0.0 in
09:32 5.2 °F 3.2 °F 1017.5 in NW 4.8 mph 19.3 mph 87 % 0.0 in
09:37 5.3 °F 3.1 °F 1017.5 in WNW 12.9 mph 14.5 mph 86 % 0.0 in
09:42 5.4 °F 3.2 °F 1017.5 in West 3.2 mph 14.5 mph 86 % 0.0 in
09:52 5.6 °F 3.3 °F 1017.8 in NNW 9.7 mph 16.1 mph 85 % 0.0 in
09:57 5.6 °F 3.3 °F 1017.8 in WSW 11.3 mph 16.1 mph 85 % 0.0 in
10:02 5.7 °F 3.2 °F 1017.8 in WNW 4.8 mph 16.1 mph 84 % 0.0 in
10:07 5.9 °F 3.4 °F 1017.8 in Calm   14.5 mph 84 % 0.0 in
10:12 6.0 °F 3.3 °F 1017.8 in WNW 8.0 mph 14.5 mph 83 % 0.0 in
10:17 6.2 °F 3.5 °F 1017.8 in NW 3.2 mph 16.1 mph 83 % 0.0 in
10:22 6.3 °F 3.6 °F 1017.8 in NW 9.7 mph 16.1 mph 83 % 0.0 in
10:32 6.4 °F 3.2 °F 1017.8 in WNW 14.5 mph 14.5 mph 80 % 0.0 in
10:42 6.6 °F 3.4 °F 1017.8 in WNW 6.4 mph 22.5 mph 80 % 0.0 in
10:52 6.7 °F 3.5 °F 1018.2 in WNW 1.6 mph 20.9 mph 80 % 0.0 in
10:57 6.8 °F 3.4 °F 1018.2 in WNW 3.2 mph 25.7 mph 79 % 0.0 in
11:02 6.8 °F 3.6 °F 1018.2 in North 9.7 mph 25.7 mph 80 % 0.0 in
11:12 6.7 °F 3.1 °F 1017.8 in NW 8.0 mph 19.3 mph 78 % 0.0 in
11:22 6.7 °F 3.1 °F 1018.2 in WNW 6.4 mph 17.7 mph 78 % 0.0 in
11:32 7.1 °F 3.3 °F 1018.2 in NW 3.2 mph 20.9 mph 77 % 0.0 in
11:37 7.1 °F 3.2 °F 1018.5 in WNW 9.7 mph 20.9 mph 76 % 0.0 in
11:42 6.9 °F 3.0 °F 1018.5 in NNW 9.7 mph 20.9 mph 76 % 0.0 in
11:52 7.0 °F 3.1 °F 1018.5 in NW 11.3 mph 16.1 mph 76 % 0.0 in
11:57 7.1 °F 3.2 °F 1018.5 in West 4.8 mph 19.3 mph 76 % 0.0 in
12:02 7.1 °F 3.2 °F 1018.5 in West 4.8 mph 19.3 mph 76 % 0.0 in
12:12 7.8 °F 4.4 °F 1018.2 in WNW 9.7 mph 20.9 mph 79 % 0.0 in
12:17 7.7 °F 3.5 °F 1018.2 in NW 6.4 mph 19.3 mph 75 % 0.0 in
12:22 7.6 °F 2.9 °F 1018.2 in WNW 11.3 mph 19.3 mph 72 % 0.0 in
12:27 7.8 °F 3.8 °F 1018.2 in NNW 4.8 mph 19.3 mph 76 % 0.0 in
12:32 7.6 °F 2.9 °F 1018.2 in NW 14.5 mph 19.3 mph 72 % 0.0 in
12:42 6.8 °F 2.5 °F 1018.2 in WNW 6.4 mph 22.5 mph 74 % 0.0 in
12:47 6.9 °F 2.4 °F 1018.2 in NW 4.8 mph 22.5 mph 73 % 0.0 in
12:52 7.2 °F 2.5 °F 1018.2 in West 11.3 mph 20.9 mph 72 % 0.0 in
12:57 7.7 °F 3.0 °F 1018.2 in WNW 9.7 mph 20.9 mph 72 % 0.0 in
13:02 7.9 °F 2.8 °F 1018.2 in NNW 8.0 mph 20.9 mph 70 % 0.0 in
13:12 7.4 °F 1.5 °F 1018.5 in NW 9.7 mph 20.9 mph 66 % 0.0 in
13:17 7.1 °F 1.6 °F 1018.2 in NNW 8.0 mph 19.3 mph 68 % 0.0 in
13:22 7.2 °F 2.3 °F 1018.2 in NW 4.8 mph 19.3 mph 71 % 0.0 in
13:27 7.6 °F 2.7 °F 1018.2 in WNW 4.8 mph 19.3 mph 71 % 0.0 in
13:32 7.8 °F 2.3 °F 1018.2 in WNW 8.0 mph 19.3 mph 68 % 0.0 in
13:37 7.8 °F 2.5 °F 1018.2 in NW 4.8 mph 14.5 mph 69 % 0.0 in
13:42 7.6 °F 2.1 °F 1018.2 in North 9.7 mph 14.5 mph 68 % 0.0 in
13:47 7.6 °F 1.4 °F 1018.2 in West 12.9 mph 16.1 mph 65 % 0.0 in
13:52 7.5 °F 1.6 °F 1018.2 in NW 12.9 mph 16.1 mph 66 % 0.0 in
13:57 7.4 °F 1.5 °F 1018.2 in NW 8.0 mph 20.9 mph 66 % 0.0 in
14:02 7.7 °F 2.4 °F 1018.2 in WSW 12.9 mph 20.9 mph 69 % 0.0 in
14:12 8.1 °F 1.7 °F 1017.8 in NW 16.1 mph 17.7 mph 64 % 0.0 in
14:17 7.8 °F 1.2 °F 1018.2 in NW 8.0 mph 24.1 mph 63 % 0.0 in
14:22 7.7 °F 1.5 °F 1018.2 in NW 11.3 mph 24.1 mph 65 % 0.0 in
14:27 7.7 °F 2.0 °F 1018.2 in NNW 8.0 mph 20.9 mph 67 % 0.0 in
14:32 7.6 °F 2.1 °F 1018.2 in WNW 6.4 mph 20.9 mph 68 % 0.0 in
14:42 7.5 °F 1.8 °F 1018.2 in NW 3.2 mph 19.3 mph 67 % 0.0 in
14:52 7.6 °F 1.9 °F 1018.2 in NW 3.2 mph 19.3 mph 67 % 0.0 in
14:57 7.7 °F 1.7 °F 1018.2 in NW 8.0 mph 20.9 mph 66 % 0.0 in
15:02 7.6 °F 1.4 °F 1018.2 in NW 6.4 mph 20.9 mph 65 % 0.0 in
15:07 7.8 °F 1.6 °F 1018.2 in North 14.5 mph 19.3 mph 65 % 0.0 in
15:12 8.0 °F 1.6 °F 1018.5 in North 11.3 mph 19.3 mph 64 % 0.0 in
15:17 7.9 °F 1.5 °F 1018.5 in WNW 8.0 mph 22.5 mph 64 % 0.0 in
15:22 8.0 °F 1.2 °F 1018.5 in WNW 11.3 mph 22.5 mph 62 % 0.0 in
15:27 8.2 °F 1.6 °F 1018.5 in WNW 16.1 mph 24.1 mph 63 % 0.0 in
15:32 8.3 °F 2.1 °F 1018.5 in NW 9.7 mph 24.1 mph 65 % 0.0 in
15:42 7.8 °F 1.4 °F 1018.5 in NNW 14.5 mph 24.1 mph 64 % 0.0 in
15:52 7.6 °F 1.4 °F 1018.8 in NW 8.0 mph 27.4 mph 65 % 0.0 in
15:57 7.6 °F 1.7 °F 1018.8 in North 4.8 mph 22.5 mph 66 % 0.0 in
16:02 7.6 °F 1.7 °F 1018.8 in NNW 6.4 mph 22.5 mph 66 % 0.0 in
16:07 7.8 °F 1.8 °F 1018.8 in WNW 8.0 mph 19.3 mph 66 % 0.0 in
16:12 7.9 °F 2.2 °F 1018.8 in WNW 6.4 mph 19.3 mph 67 % 0.0 in
16:17 7.9 °F 1.7 °F 1018.8 in NNW 1.6 mph 14.5 mph 65 % 0.0 in
16:22 7.7 °F 1.5 °F 1018.8 in WNW 4.8 mph 14.5 mph 65 % 0.0 in
16:27 7.6 °F 1.9 °F 1018.8 in NNW 9.7 mph 16.1 mph 67 % 0.0 in
16:32 7.5 °F 0.9 °F 1018.8 in NW 11.3 mph 16.1 mph 63 % 0.0 in
16:42 7.4 °F 1.3 °F 1019.2 in NNW 6.4 mph 16.1 mph 65 % 0.0 in
16:52 7.6 °F 1.2 °F 1019.2 in WNW 6.4 mph 12.9 mph 64 % 0.0 in
16:57 7.7 °F 1.7 °F 1019.2 in NW 3.2 mph 16.1 mph 66 % 0.0 in
17:02 7.6 °F 1.7 °F 1019.2 in WNW 6.4 mph 16.1 mph 66 % 0.0 in
17:12 7.5 °F 1.3 °F 1019.2 in NW 9.7 mph 11.3 mph 65 % 0.0 in
17:17 7.6 °F 1.0 °F 1019.2 in NW 3.2 mph 20.9 mph 63 % 0.0 in
17:22 7.6 °F 1.2 °F 1019.2 in NW 4.8 mph 20.9 mph 64 % 0.0 in
17:27 7.6 °F 1.2 °F 1019.5 in NW 3.2 mph 20.9 mph 64 % 0.0 in
17:32 7.5 °F 1.3 °F 1019.5 in NW 12.9 mph 20.9 mph 65 % 0.0 in
17:37 7.4 °F 1.5 °F 1019.5 in WNW 11.3 mph 17.7 mph 66 % 0.0 in
17:42 7.6 °F 1.7 °F 1019.5 in WNW 3.2 mph 17.7 mph 66 % 0.0 in
17:52 7.5 °F 1.6 °F 1019.9 in WNW 3.2 mph 16.1 mph 66 % 0.0 in
17:57 7.4 °F 1.3 °F 1019.9 in NNW 4.8 mph 17.7 mph 65 % 0.0 in
18:02 7.4 °F 1.7 °F 1019.9 in WNW 4.8 mph 17.7 mph 67 % 0.0 in
18:12 7.3 °F 1.6 °F 1019.9 in NNW 4.8 mph 17.7 mph 67 % 0.0 in
18:17 7.2 °F 1.7 °F 1020.2 in NNW 3.2 mph 12.9 mph 68 % 0.0 in
18:22 7.1 °F 1.4 °F 1020.2 in NW 4.8 mph 12.9 mph 67 % 0.0 in
18:32 6.9 °F 1.6 °F 1020.2 in NW 6.4 mph 14.5 mph 69 % 0.0 in
18:42 6.8 °F 1.7 °F 1020.5 in NNW 9.7 mph 11.3 mph 70 % 0.0 in
18:47 6.7 °F 1.6 °F 1020.5 in NW 6.4 mph 11.3 mph 70 % 0.0 in
18:52 6.6 °F 1.7 °F 1020.9 in NW 4.8 mph 16.1 mph 71 % 0.0 in
18:57 6.4 °F 1.7 °F 1020.9 in NNE 6.4 mph 12.9 mph 72 % 0.0 in
19:02 6.2 °F 1.7 °F 1020.9 in North 6.4 mph 12.9 mph 73 % 0.0 in
19:12 5.9 °F 1.6 °F 1021.2 in North 6.4 mph 8.0 mph 74 % 0.0 in
19:17 5.8 °F 1.5 °F 1021.2 in North 4.8 mph 11.3 mph 74 % 0.0 in
19:22 5.7 °F 1.4 °F 1021.6 in NNW 4.8 mph 11.3 mph 74 % 0.0 in
19:32 5.4 °F 1.1 °F 1021.6 in NNW 3.2 mph 8.0 mph 74 % 0.0 in
19:37 5.3 °F 1.0 °F 1021.6 in NNW 1.6 mph 6.4 mph 74 % 0.0 in
19:42 5.2 °F 0.9 °F 1021.6 in NNW 1.6 mph 6.4 mph 74 % 0.0 in
19:47 5.1 °F 0.8 °F 1021.6 in NNW 3.2 mph 6.4 mph 74 % 0.0 in
19:52 5.0 °F 0.8 °F 1021.9 in North 3.2 mph 6.4 mph 74 % 0.0 in
19:57 4.9 °F 0.8 °F 1021.9 in NNW 1.6 mph 6.4 mph 75 % 0.0 in
20:02 4.8 °F 0.9 °F 1021.9 in Calm   6.4 mph 76 % 0.0 in
20:12 4.7 °F 0.8 °F 1021.9 in WNW 1.6 mph 4.8 mph 76 % 0.0 in
20:22 4.7 °F 0.8 °F 1021.9 in WNW 3.2 mph 3.2 mph 76 % 0.0 in
20:27 4.7 °F 0.8 °F 1021.9 in WNW 1.6 mph 4.8 mph 76 % 0.0 in
20:32 4.6 °F 0.7 °F 1021.9 in NW 1.6 mph 4.8 mph 76 % 0.0 in
20:37 4.6 °F 0.7 °F 1022.2 in Calm   3.2 mph 76 % 0.0 in
20:42 4.5 °F 0.6 °F 1022.2 in Calm   3.2 mph 76 % 0.0 in
20:47 4.4 °F 0.5 °F 1022.2 in Calm   1.6 mph 76 % 0.0 in
20:52 4.4 °F 0.5 °F 1022.2 in Calm   1.6 mph 76 % 0.0 in
20:57 4.4 °F 0.5 °F 1022.2 in NNW 1.6 mph 3.2 mph 76 % 0.0 in
21:02 4.3 °F 0.6 °F 1022.6 in NNW 1.6 mph 3.2 mph 77 % 0.0 in
21:07 4.1 °F 0.6 °F 1022.6 in NNW 1.6 mph 4.8 mph 78 % 0.0 in
21:12 3.9 °F 0.4 °F 1022.6 in NNW 3.2 mph 4.8 mph 78 % 0.0 in
21:17 3.9 °F 0.6 °F 1022.6 in NNW 1.6 mph 4.8 mph 79 % 0.0 in
21:22 3.8 °F 0.5 °F 1022.6 in Calm   4.8 mph 79 % 0.0 in
21:32 3.7 °F 0.6 °F 1022.6 in WNW 1.6 mph 4.8 mph 80 % 0.0 in
21:42 3.4 °F 0.3 °F 1022.9 in Calm   3.2 mph 80 % 0.0 in
21:52 3.2 °F 0.3 °F 1022.9 in NNW 3.2 mph 3.2 mph 81 % 0.0 in
21:57 3.3 °F 0.4 °F 1022.9 in Calm   3.2 mph 81 % 0.0 in
22:02 3.3 °F 0.2 °F 1022.9 in Calm   3.2 mph 80 % 0.0 in
22:12 3.2 °F 0.3 °F 1022.9 in NNW 1.6 mph 4.8 mph 81 % 0.0 in
22:17 3.1 °F 0.2 °F 1022.9 in NNW 1.6 mph 4.8 mph 81 % 0.0 in
22:22 2.9 °F 0.0 °F 1022.9 in NW 1.6 mph 4.8 mph 81 % 0.0 in
22:32 3.1 °F 0.2 °F 1023.2 in Calm   3.2 mph 81 % 0.0 in
22:37 3.2 °F 0.3 °F 1023.2 in NNW 4.8 mph 4.8 mph 81 % 0.0 in
22:42 3.2 °F 0.1 °F 1023.2 in NNW 3.2 mph 4.8 mph 80 % 0.0 in
22:47 3.2 °F 0.1 °F 1023.2 in NW 3.2 mph 4.8 mph 80 % 0.0 in
22:52 3.2 °F 0.1 °F 1023.2 in NNW 1.6 mph 4.8 mph 80 % 0.0 in
22:57 3.1 °F 0.2 °F 1023.2 in North 1.6 mph 6.4 mph 81 % 0.0 in
23:02 2.9 °F 0.0 °F 1023.2 in NNW 3.2 mph 6.4 mph 81 % 0.0 in
23:07 2.9 °F 0.1 °F 1023.2 in NNW 1.6 mph 6.4 mph 82 % 0.0 in
23:12 2.8 °F 0.0 °F 1023.2 in North 1.6 mph 6.4 mph 82 % 0.0 in
23:17 2.8 °F 0.0 °F 1023.2 in NNW 3.2 mph 4.8 mph 82 % 0.0 in
23:22 2.8 °F 0.0 °F 1023.2 in NW 3.2 mph 4.8 mph 82 % 0.0 in
23:32 2.7 °F -0.1 °F 1023.2 in Calm   6.4 mph 82 % 0.0 in
23:37 2.7 °F -0.1 °F 1023.6 in NW 4.8 mph 4.8 mph 82 % 0.0 in
23:42 2.7 °F -0.1 °F 1023.2 in Calm   4.8 mph 82 % 0.0 in
23:52 2.5 °F -0.1 °F 1023.2 in NW 1.6 mph 4.8 mph 83 % 0.0 in
Meteo18
Compliments of Weather Underground - 4 mb

Script developed by  Jim McMurry - jmcmurry@mwt.net Adapted for the template by  Wim van der Kuil - Leuven-Template.eu

You find our weather info also at:

European Weather Network

Weather Underground

Equipment we use:

Weather-station
Davis Vue

Weather-program
Meteobridge

Weather-server
Raspberry PI 2 B+

Provider
1 and 1

Davis Vue

Meteobridge

Raspberry PI 2 B+

1 and 1